Flag for Romania Weather past 2 weeks in Bucharest, Romania

Now
32 °F

Light snow. Ice fog.


Feels Like: 24 °F
Forecast: 26 / 33 °F
Wind: 10 mph from Northeast

Location: Bucharest / Imh

Current Time: Dec 28, 2014 at 10:55:26 PM

Latest Report: Dec 28, 2014 at 10:30 PM


Visibility: 2 mi

Pressure: 29.71 "Hg

Humidity: 100%

Dew point: 32 °F

Location of BucharestLocation

Historic Weather in Bucharest — Graph

°F

Bucharest temperature yesterday

Maximum temperature yesterday: 36 °F (at 12:00 AM)
Minimum temperature yesterday: 32 °F (at 10:30 AM)
Average temperature yesterday: 34 °F

Past Weeks' High & Low Weather Summary

 TemperatureHumidityPressure
High63 °F (Dec 24, 2:30 PM)100% (Dec 13, 10:30 PM)30.33 "Hg (Dec 13, 10:30 PM)
Low21 °F (Dec 28, 8:00 AM)31% (Dec 24, 12:00 PM)29.74 "Hg (Dec 28, 8:00 PM)
Average38 °F88%30.06 "Hg
* Reported Dec 13 9:00 PM — Dec 28 9:30 PM, Bucharest, Weather by CustomWeather, © 2014

Note: Actual official high and low records may vary slightly from our data, if they occured in-between our weather recording intervals... More about our weather records

Advertising

Bucharest weather history for previous 24 hours

 ConditionsComfort  
Time TempWeatherWind HumidityBarometerVisibility
9:30 PM
Dec 28
32 °FLight snow. Ice fog.10 mph100%29.74 "Hg1 mi
9:00 PM32 °FLight snow. Ice fog.9 mph100%29.74 "Hg1 mi
8:30 PM32 °FLight snow. Ice fog.9 mph100%29.74 "Hg1 mi
8:00 PM32 °FLight snow. Ice fog.10 mph93%29.74 "Hg1 mi
7:30 PM32 °FLight snow. Ice fog.12 mph93%29.77 "Hg1 mi
7:00 PM32 °FSnow. Ice fog.9 mph93%29.77 "Hg1 mi
6:30 PM30 °FIce fog.10 mph100%29.77 "Hg2 mi
6:00 PM30 °FIce fog.10 mph100%29.77 "Hg3 mi
5:30 PM30 °FPassing clouds.9 mph93%29.80 "Hg4 mi
5:00 PM30 °FPassing clouds.7 mph93%29.80 "Hg4 mi
4:30 PM30 °FPartly sunny.10 mph93%29.77 "Hg5 mi
4:00 PM30 °FPartly sunny.13 mph93%29.80 "Hg5 mi
3:30 PM28 °FIce fog.10 mph100%29.80 "Hg3 mi
3:00 PM28 °FIce fog.12 mph100%29.80 "Hg2 mi
2:30 PM28 °FIce fog.12 mph100%29.83 "Hg2 mi
2:00 PM28 °FIce fog.13 mph93%29.83 "Hg2 mi
1:30 PM28 °FPartly sunny.10 mph93%29.86 "Hg4 mi
1:00 PM28 °FPartly sunny.12 mph93%29.89 "Hg4 mi
12:30 PM28 °FPartly sunny.12 mph93%29.89 "Hg4 mi
12:00 PM28 °FPartly sunny.10 mph93%29.89 "HgN/A
11:30 AM28 °FScattered clouds.9 mph93%29.92 "HgN/A
11:00 AM27 °FPassing clouds.9 mph100%29.92 "HgN/A
10:30 AM27 °FSunny.8 mph100%29.92 "Hg10 mi
10:00 AM27 °FPassing clouds.6 mph93%29.92 "HgN/A
9:30 AM25 °FSunny.3 mph93%29.92 "Hg10 mi
9:00 AM23 °FClear.6 mph93%29.92 "Hg4 mi
8:30 AM21 °FIce fog.7 mph100%29.92 "Hg3 mi
8:00 AM21 °FIce fog.6 mph100%29.92 "Hg3 mi
7:30 AM23 °FIce fog.3 mph93%29.92 "Hg3 mi
7:00 AM23 °FIce fog.5 mph100%29.92 "Hg3 mi
6:30 AM25 °FIce fog.5 mph100%29.92 "Hg3 mi
5:30 AM28 °FLow clouds.2 mph93%29.89 "Hg4 mi
5:00 AM28 °FLow clouds.2 mph100%29.89 "Hg5 mi
4:30 AM28 °FIce fog.2 mph100%29.92 "Hg3 mi
4:00 AM30 °FIce fog.2 mph93%29.92 "Hg2 mi
3:30 AM30 °FIce fog.2 mph93%29.92 "Hg3 mi
3:00 AM30 °FMostly cloudy.3 mph93%29.92 "Hg4 mi
2:30 AM30 °FMostly cloudy.7 mph93%29.89 "Hg6 mi
2:00 AM32 °FMostly cloudy.6 mph93%29.89 "Hg5 mi
1:30 AM32 °FIce fog.7 mph93%29.89 "Hg3 mi
1:00 AM32 °FMostly cloudy.7 mph100%29.89 "Hg4 mi
12:30 AM32 °FIce fog.1 mph100%29.86 "Hg3 mi
12:00 AM32 °FIce fog.1 mph100%29.86 "Hg2 mi
11:30 PM
Dec 27
32 °FLight snow. Ice fog.3 mph100%29.89 "Hg2 mi
11:00 PM32 °FIce fog.8 mph100%29.89 "Hg1 mi
10:30 PM34 °FFog.8 mph93%29.89 "Hg2 mi
10:00 PM34 °FFog.6 mph93%29.89 "Hg2 mi
Weather by CustomWeather, © 2014

See weather overviewHow to use our weather pages